• In Italy
  • List of Countries
  • For 7 days
  • Water Temperature
  • Satellite Maps
  • Weather Map
  • Weather Widgets
  • user-avatar
    Login

    Hourly Weather Newport

    Today, 12 December, Tuesday

    Time Temperature Precipitation Wind Pressure Humidity
    00:00 0°C° 0 mm 3 mps 750 mmHg 85%
    01:00 0°C° 0 mm 3 mps 751 mmHg 85%
    02:00 0°C° 0 mm 3 mps 751 mmHg 85%
    03:00 0°C° 0 mm 3 mps 752 mmHg 85%
    04:00 +1°C° 0 mm 2 mps 752 mmHg 85%
    05:00 +1°C° 0 mm 2 mps 753 mmHg 85%
    06:00 +1°C° 0 mm 2 mps 753 mmHg 85%
    07:00 +1°C° 0 mm 2 mps 754 mmHg 86%
    08:00 +2°C° 0 mm 2 mps 754 mmHg 87%
    09:00 +2°C° 0 mm 2 mps 754 mmHg 87%
    10:00 +2°C° 0 mm 3 mps 755 mmHg 88%
    11:00 +3°C° 0 mm 3 mps 755 mmHg 88%
    12:00 +4°C° 0 mm 4 mps 755 mmHg 89%
    13:00 +3°C° 0 mm 5 mps 754 mmHg 88%
    14:00 +3°C° 0 mm 5 mps 754 mmHg 88%
    15:00 +3°C° 0 mm 6 mps 754 mmHg 88%
    16:00 +3°C° 0.3 mm 7 mps 753 mmHg 89%
    17:00 +3°C° 0.3 mm 7 mps 753 mmHg 90%
    18:00 +4°C° 0.3 mm 8 mps 753 mmHg 91%
    19:00 +4°C° 0.7 mm 8 mps 752 mmHg 92%
    20:00 +5°C° 0.7 mm 8 mps 752 mmHg 93%
    21:00 +5°C° 0.7 mm 8 mps 751 mmHg 94%
    22:00 +5°C° 0.1 mm 8 mps 751 mmHg 93%
    23:00 +5°C° 0.1 mm 7 mps 751 mmHg 92%

    Tomorrow, 13 December, Wednesday

    Time Temperature Precipitation Wind Pressure Humidity
    00:00 +5°C° 0.1 mm 7 mps 751 mmHg 91%
    01:00 +5°C° 0 mm 7 mps 751 mmHg 90%
    02:00 +4°C° 0 mm 6 mps 751 mmHg 89%
    03:00 +4°C° 0 mm 6 mps 751 mmHg 88%
    04:00 +4°C° 0.2 mm 6 mps 751 mmHg 89%
    05:00 +4°C° 0.2 mm 7 mps 751 mmHg 89%
    06:00 +5°C° 0.2 mm 7 mps 750 mmHg 90%
    07:00 +5°C° 0.7 mm 7 mps 750 mmHg 91%
    08:00 +5°C° 0.7 mm 8 mps 749 mmHg 92%
    09:00 +5°C° 0.7 mm 8 mps 748 mmHg 93%
    10:00 +6°C° 0.8 mm 9 mps 747 mmHg 92%
    11:00 +6°C° 0.8 mm 10 mps 746 mmHg 91%
    12:00 +7°C° 0.8 mm 11 mps 745 mmHg 90%
    13:00 +6°C° 0.6 mm 11 mps 745 mmHg 84%
    14:00 +4°C° 0.6 mm 12 mps 745 mmHg 79%
    15:00 +3°C° 0.6 mm 12 mps 745 mmHg 74%
    16:00 +3°C° 0.6 mm 13 mps 745 mmHg 75%
    17:00 +3°C° 0.6 mm 14 mps 745 mmHg 76%
    18:00 +1°C° 0.6 mm 15 mps 745 mmHg 77%
    19:00 +1°C° 0.2 mm 14 mps 746 mmHg 74%
    20:00 0°C° 0.2 mm 14 mps 747 mmHg 72%
    21:00 0°C° 0.2 mm 13 mps 747 mmHg 69%
    22:00 0°C° 0.2 mm 13 mps 748 mmHg 70%
    23:00 0°C° 0.2 mm 12 mps 748 mmHg 71%

    Day after tomorrow, 14 December, Thursday

    Time Temperature Precipitation Wind Pressure Humidity
    00:00 0°C° 0.2 mm 12 mps 749 mmHg 73%
    01:00 0°C° 0.2 mm 12 mps 748 mmHg 73%
    02:00 +1°C° 0.2 mm 11 mps 748 mmHg 74%
    03:00 +1°C° 0.2 mm 11 mps 748 mmHg 74%
    04:00 +1°C° 0.2 mm 11 mps 748 mmHg 75%
    05:00 +1°C° 0.2 mm 10 mps 747 mmHg 76%
    06:00 +1°C° 0.2 mm 9 mps 747 mmHg 78%
    07:00 +1°C° 0.6 mm 9 mps 746 mmHg 80%
    08:00 +2°C° 0.6 mm 9 mps 745 mmHg 82%
    09:00 +2°C° 0.6 mm 8 mps 744 mmHg 85%
    10:00 +2°C° 0.6 mm 9 mps 744 mmHg 82%
    11:00 +2°C° 0.6 mm 9 mps 744 mmHg 79%
    12:00 +2°C° 0.6 mm 9 mps 743 mmHg 76%
    13:00 +2°C° 0.2 mm 9 mps 743 mmHg 76%
    14:00 +1°C° 0.2 mm 9 mps 743 mmHg 76%
    15:00 +1°C° 0.2 mm 9 mps 742 mmHg 76%
    16:00 +1°C° 0.4 mm 9 mps 742 mmHg 78%
    17:00 +2°C° 0.4 mm 9 mps 742 mmHg 79%
    18:00 +2°C° 0.4 mm 9 mps 742 mmHg 81%
    19:00 +2°C° 0.5 mm 9 mps 741 mmHg 81%
    20:00 +2°C° 0.5 mm 9 mps 741 mmHg 81%
    21:00 +2°C° 0.5 mm 9 mps 741 mmHg 82%
    22:00 +2°C° 0.3 mm 9 mps 742 mmHg 83%
    23:00 +2°C° 0.3 mm 8 mps 742 mmHg 85%

    15 December, Friday

    Time Temperature Precipitation Wind Pressure Humidity
    00:00 +2°C° 0.3 mm 8 mps 743 mmHg 87%
    01:00 +2°C° 0.1 mm 8 mps 744 mmHg 86%
    02:00 +1°C° 0.1 mm 8 mps 744 mmHg 85%
    03:00 +1°C° 0.1 mm 8 mps 745 mmHg 84%
    04:00 +2°C° 0 mm 9 mps 746 mmHg 84%
    05:00 +2°C° 0 mm 9 mps 746 mmHg 84%
    06:00 +2°C° 0 mm 9 mps 747 mmHg 84%
    07:00 +3°C° 0.2 mm 10 mps 747 mmHg 83%
    08:00 +3°C° 0.2 mm 11 mps 747 mmHg 82%
    09:00 +3°C° 0.2 mm 12 mps 748 mmHg 82%
    10:00 +3°C° 0.1 mm 12 mps 749 mmHg 81%
    11:00 +3°C° 0.1 mm 12 mps 750 mmHg 79%
    12:00 +2°C° 0.1 mm 11 mps 751 mmHg 78%
    13:00 +2°C° 0 mm 10 mps 752 mmHg 78%
    14:00 +2°C° 0 mm 8 mps 753 mmHg 79%
    15:00 +3°C° 0 mm 7 mps 754 mmHg 79%
    16:00 +3°C° 0 mm 7 mps 755 mmHg 80%
    17:00 +3°C° 0 mm 6 mps 756 mmHg 82%
    18:00 +2°C° 0 mm 6 mps 756 mmHg 83%
    19:00 +2°C° 0 mm 6 mps 757 mmHg 83%
    20:00 +2°C° 0 mm 6 mps 758 mmHg 84%
    21:00 +2°C° 0 mm 6 mps 758 mmHg 84%
    22:00 +2°C° 0 mm 6 mps 759 mmHg 84%
    23:00 +2°C° 0 mm 6 mps 759 mmHg 83%

    16 December, Saturday

    Time Temperature Precipitation Wind Pressure Humidity
    00:00 +2°C° 0 mm 6 mps 759 mmHg 83%
    01:00 +2°C° 0.1 mm 6 mps 759 mmHg 83%
    02:00 +2°C° 0.1 mm 6 mps 760 mmHg 83%
    03:00 +2°C° 0.1 mm 6 mps 760 mmHg 83%
    04:00 +1°C° 0.1 mm 6 mps 760 mmHg 83%
    05:00 +1°C° 0.1 mm 6 mps 761 mmHg 83%
    06:00 +1°C° 0.1 mm 6 mps 761 mmHg 83%
    07:00 +1°C° 0 mm 6 mps 761 mmHg 83%
    08:00 +1°C° 0 mm 5 mps 762 mmHg 83%
    09:00 +1°C° 0 mm 5 mps 763 mmHg 83%
    10:00 +2°C° 0 mm 5 mps 763 mmHg 81%
    11:00 +3°C° 0 mm 5 mps 763 mmHg 79%
    12:00 +5°C° 0 mm 5 mps 763 mmHg 77%
    13:00 +5°C° 0 mm 4 mps 764 mmHg 77%
    14:00 +4°C° 0 mm 4 mps 764 mmHg 78%
    15:00 +4°C° 0 mm 4 mps 764 mmHg 79%
    16:00 +3°C° 0 mm 3 mps 764 mmHg 79%
    17:00 +4°C° 0 mm 2 mps 765 mmHg 80%
    18:00 +3°C° 0 mm 2 mps 765 mmHg 80%
    19:00 +3°C° 0 mm 2 mps 766 mmHg 81%
    20:00 +4°C° 0 mm 1 mps 766 mmHg 82%
    21:00 +4°C° 0 mm 1 mps 767 mmHg 82%
    22:00 +4°C° 0 mm 1 mps 767 mmHg 83%
    23:00 +4°C° 0 mm 1 mps 767 mmHg 85%

    17 December, Sunday

    Time Temperature Precipitation Wind Pressure Humidity
    00:00 +3°C° 0 mm 2 mps 767 mmHg 86%
    01:00 +3°C° 0 mm 2 mps 767 mmHg 87%
    02:00 +3°C° 0 mm 3 mps 767 mmHg 87%
    03:00 +3°C° 0 mm 3 mps 767 mmHg 88%
    04:00 +3°C° 0.1 mm 3 mps 767 mmHg 89%
    05:00 +3°C° 0.1 mm 3 mps 767 mmHg 91%
    06:00 +4°C° 0.1 mm 4 mps 767 mmHg 92%
    07:00 +4°C° 0 mm 3 mps 767 mmHg 92%
    08:00 +4°C° 0 mm 3 mps 767 mmHg 92%
    09:00 +4°C° 0 mm 3 mps 768 mmHg 92%
    10:00 +5°C° 0 mm 3 mps 768 mmHg 91%
    11:00 +6°C° 0 mm 4 mps 768 mmHg 89%
    12:00 +7°C° 0 mm 4 mps 767 mmHg 87%
    13:00 +7°C° 0 mm 4 mps 767 mmHg 88%
    14:00 +7°C° 0 mm 5 mps 767 mmHg 88%
    15:00 +6°C° 0 mm 5 mps 766 mmHg 89%
    16:00 +7°C° 0.1 mm 5 mps 766 mmHg 90%
    17:00 +7°C° 0.1 mm 6 mps 766 mmHg 91%
    18:00 +7°C° 0.1 mm 6 mps 766 mmHg 93%
    19:00 +7°C° 0.2 mm 6 mps 765 mmHg 93%
    20:00 +7°C° 0.2 mm 6 mps 765 mmHg 94%
    21:00 +8°C° 0.2 mm 7 mps 765 mmHg 94%
    22:00 +8°C° 0.1 mm 7 mps 764 mmHg 94%
    23:00 +8°C° 0.1 mm 7 mps 764 mmHg 94%
    Show more